Weather in Sverdlovskiy

Russia / Kemerovo Oblast     54°35′00″N   86°08′24″E
temp.,
°C
wind,
m/s
gust,
m/s
humid.,
%
clouds,
%
prec.,
mm/h
press.,
hPa
HPBL,
m
26 february, fri
fri2601:00−18sw51189100 0.1 1024863
04:00−21ssw51383100 0.0 10251046
07:00−22sw61291100 0.1 10281004
10:00−22sw81383100 0.0 10301263
13:00−21sw81382100 0.1 10321269
16:00−19sw81482100 0.1 10331462
19:00−21sw61287100 0.1 10351096
22:00−22sw41191100 0.0 1037707
27 february, sat
sat2701:00−23sw4990100 0.0 1038421
04:00−24ssw3794100 0.1 1038260
07:00−24ssw3693100 0.1 1038166
10:00−22sw4989100 0.1 1039653
13:00−20sw5888100 0.1 1039780
16:00−19wsw5784100 0.1 1038881
19:00−21sw3690100 0.1 1039147
22:00−24sw3392100 0.0 104028
28 february, sun
sun2801:00−26ssw2393100 0.0 104120
04:00−27s229430 0.0 104119
07:00−27sse239421 0.0 104119
10:00−24se34950 0.0 1041117
13:00−16se469025 0.0 1039405
16:00−11sse3579100 0.0 1037915
19:00−14sse348699 0.1 103551
22:00−14se4988100 0.0 1033179
1 march, mon
mon101:00−11se61283100 0.0 1030295
04:00−11se61291100 0.2 1026352
07:00−9se71293100 0.9 1023420
10:00−6s61195100 1.1 1020810
13:00−4ssw71284100 1.6 10181167
16:00−3sw71291100 1.8 10161024
19:00−4sw61487100 1.9 1015727
22:00−4sw61586100 0.0 1015684
2 march, tue
tue201:00−5sw71586100 0.0 1015571
04:00−4sw61487100 0.0 1013668
07:00−3sw71586100 0.0 1012701
10:00−2sw81586100 0.0 1012733
13:00−1sw8128699 0.0 1012807
16:00−1sw61186100 0.0 1012818
19:00−2ssw41092100 0.1 1010504
22:00−3sw41095100 0.7 1010552